Time,TemperatureF,DewpointF,PressureIn,WindDirection,WindDirectionDegrees,WindSpeedMPH,WindSpeedGustMPH,Humidity,HourlyPrecipIn,Conditions,Clouds,dailyrainin,SoftwareType,DateUTC
2013-01-02 07:15:00,44.0,43.7,30.00,ESE,115,0.0,0.0,99,0.00,,,0.20,Wunderground v.1.15,2013-01-02 12:15:00,
2013-01-02 07:20:00,43.9,43.6,30.01,ESE,117,0.0,0.0,99,0.00,,,0.20,Wunderground v.1.15,2013-01-02 12:20:00,
2013-01-02 07:25:00,43.9,43.6,30.01,ESE,117,0.0,0.0,99,0.00,,,0.20,Wunderground v.1.15,2013-01-02 12:25:00,
2013-01-02 07:35:00,43.7,43.4,30.00,ESE,117,0.0,0.0,99,0.00,,,0.20,Wunderground v.1.15,2013-01-02 12:35:00,
2013-01-02 07:40:00,43.7,43.4,30.00,ESE,117,0.0,0.0,99,0.00,,,0.20,Wunderground v.1.15,2013-01-02 12:40:00,
2013-01-02 07:45:00,43.7,43.4,30.00,ESE,117,0.0,0.0,99,0.00,,,0.20,Wunderground v.1.15,2013-01-02 12:45:00,
2013-01-02 07:55:00,43.6,43.3,30.00,ESE,117,0.0,0.0,99,0.00,,,0.20,Wunderground v.1.15,2013-01-02 12:55:00,
2013-01-02 08:00:00,43.7,43.4,30.00,ESE,117,0.0,0.0,99,0.00,,,0.20,Wunderground v.1.15,2013-01-02 13:00:00,
2013-01-02 08:05:00,43.7,43.4,30.00,ESE,117,0.0,0.0,99,0.00,,,0.20,Wunderground v.1.15,2013-01-02 13:05:00,
2013-01-02 08:10:00,43.8,43.5,29.99,ESE,117,0.0,0.0,99,0.00,,,0.20,Wunderground v.1.15,2013-01-02 13:10:00,
2013-01-02 08:20:00,43.9,43.6,30.01,ESE,117,0.0,0.0,99,0.00,,,0.20,Wunderground v.1.15,2013-01-02 13:20:00,
2013-01-02 08:25:00,44.0,43.7,30.00,ESE,117,0.0,0.0,99,0.00,,,0.20,Wunderground v.1.15,2013-01-02 13:25:00,
2013-01-02 08:30:00,44.0,43.7,30.01,ESE,117,0.0,0.0,99,0.00,,,0.20,Wunderground v.1.15,2013-01-02 13:30:00,
2013-01-02 08:40:00,44.1,43.8,30.02,ESE,117,0.0,0.0,99,0.00,,,0.20,Wunderground v.1.15,2013-01-02 13:40:00,
2013-01-02 08:50:00,44.1,43.8,30.02,ESE,119,0.0,0.0,99,0.00,,,0.20,Wunderground v.1.15,2013-01-02 13:50:00,
2013-01-02 08:55:00,44.1,43.8,30.03,ESE,118,0.0,0.0,99,0.00,,,0.20,Wunderground v.1.15,2013-01-02 13:55:00,
2013-01-02 09:00:00,44.1,43.8,30.03,ESE,109,0.0,0.0,99,0.00,,,0.20,Wunderground v.1.15,2013-01-02 14:00:00,
2013-01-02 09:10:00,44.1,43.8,30.04,ESE,113,0.0,0.0,99,0.00,,,0.20,Wunderground v.1.15,2013-01-02 14:10:00,
2013-01-02 09:15:00,44.1,43.8,30.05,ESE,113,0.0,1.0,99,0.00,,,0.20,Wunderground v.1.15,2013-01-02 14:15:00,
2013-01-02 09:20:00,44.1,43.8,30.05,SE,141,0.0,0.0,99,0.00,,,0.20,Wunderground v.1.15,2013-01-02 14:20:00,
2013-01-02 09:30:00,44.0,43.7,30.06,ESE,122,0.0,0.0,99,0.00,,,0.20,Wunderground v.1.15,2013-01-02 14:30:00,
2013-01-02 09:40:00,44.1,43.8,30.05,SE,138,0.0,0.0,99,0.00,,,0.20,Wunderground v.1.15,2013-01-02 14:40:00,
2013-01-02 09:45:00,44.1,43.8,30.06,SW,221,0.0,0.0,99,0.00,,,0.20,Wunderground v.1.15,2013-01-02 14:45:00,
2013-01-02 09:55:00,44.2,43.7,30.06,ESE,112,0.0,0.0,98,0.00,,,0.20,Wunderground v.1.15,2013-01-02 14:55:00,
2013-01-02 10:00:00,44.3,43.8,30.07,East,93,0.0,0.0,98,0.00,,,0.20,Wunderground v.1.15,2013-01-02 15:00:00,
2013-01-02 10:10:00,44.6,44.1,30.07,SE,139,0.0,1.0,98,0.00,,,0.20,Wunderground v.1.15,2013-01-02 15:10:00,
2013-01-02 10:15:00,44.8,44.3,30.07,ESE,117,0.0,1.0,98,0.00,,,0.20,Wunderground v.1.15,2013-01-02 15:15:00,
2013-01-02 10:25:00,45.0,44.2,30.08,ENE,58,0.0,0.0,97,0.00,,,0.20,Wunderground v.1.15,2013-01-02 15:25:00,
2013-01-02 10:30:00,44.9,43.8,30.08,ESE,121,0.0,0.0,96,0.00,,,0.20,Wunderground v.1.15,2013-01-02 15:30:00,
2013-01-02 10:35:00,44.9,43.8,30.08,ESE,117,0.0,0.0,96,0.00,,,0.20,Wunderground v.1.15,2013-01-02 15:35:00,
2013-01-02 10:45:00,45.1,44.0,30.07,ESE,113,0.0,1.0,96,0.00,,,0.20,Wunderground v.1.15,2013-01-02 15:45:00,
2013-01-02 10:55:00,45.0,43.7,30.07,SE,125,0.0,1.0,95,0.00,,,0.20,Wunderground v.1.15,2013-01-02 15:55:00,
2013-01-02 11:00:00,44.8,43.2,30.07,East,98,0.0,2.0,94,0.00,,,0.20,Wunderground v.1.15,2013-01-02 16:00:00,
2013-01-02 11:10:00,44.5,42.9,30.07,East,82,0.0,2.0,94,0.00,,,0.20,Wunderground v.1.15,2013-01-02 16:10:00,
2013-01-02 11:20:00,44.6,43.0,30.07,ESE,103,0.0,1.0,94,0.00,,,0.20,Wunderground v.1.15,2013-01-02 16:20:00,
2013-01-02 11:30:00,45.0,43.1,30.07,NE,54,1.0,1.0,93,0.00,,,0.20,Wunderground v.1.15,2013-01-02 16:30:00,
2013-01-02 11:35:00,45.1,43.2,30.08,ESE,113,0.0,1.0,93,0.00,,,0.20,Wunderground v.1.15,2013-01-02 16:35:00,
2013-01-02 11:40:00,45.0,42.8,30.07,SE,127,0.0,1.0,92,0.00,,,0.20,Wunderground v.1.15,2013-01-02 16:40:00,
2013-01-02 11:50:00,45.6,43.1,30.06,ESE,120,1.0,1.0,91,0.00,,,0.20,Wunderground v.1.15,2013-01-02 16:50:00,
2013-01-02 11:55:00,45.9,43.1,30.06,ENE,72,0.0,1.0,90,0.00,,,0.20,Wunderground v.1.15,2013-01-02 16:55:00,
2013-01-02 12:00:00,46.0,42.6,30.06,SE,128,0.0,0.0,88,0.00,,,0.20,Wunderground v.1.15,2013-01-02 17:00:00,
2013-01-02 12:10:00,46.2,42.5,30.06,ESE,105,0.0,0.0,87,0.00,,,0.20,Wunderground v.1.15,2013-01-02 17:10:00,
2013-01-02 12:15:00,46.4,42.7,30.06,SSE,155,0.0,0.0,87,0.00,,,0.20,Wunderground v.1.15,2013-01-02 17:15:00,
2013-01-02 12:25:00,46.4,41.5,30.06,East,88,1.0,3.0,83,0.00,,,0.20,Wunderground v.1.15,2013-01-02 17:25:00,
2013-01-02 12:35:00,46.5,41.6,30.05,ENE,58,0.0,1.0,83,0.00,,,0.20,Wunderground v.1.15,2013-01-02 17:35:00,
2013-01-02 12:45:00,46.9,41.4,30.04,ENE,77,1.0,2.0,81,0.00,,,0.20,Wunderground v.1.15,2013-01-02 17:45:00,
2013-01-02 12:55:00,47.0,41.5,30.04,ESE,110,1.0,1.0,81,0.00,,,0.20,Wunderground v.1.15,2013-01-02 17:55:00,
2013-01-02 13:00:00,47.1,41.2,30.03,East,100,1.0,1.0,80,0.00,,,0.20,Wunderground v.1.15,2013-01-02 18:00:00,
2013-01-02 13:10:00,47.6,41.4,30.04,SSE,150,1.0,1.0,79,0.00,,,0.20,Wunderground v.1.15,2013-01-02 18:10:00,
2013-01-02 13:20:00,47.7,40.5,30.04,ENE,78,1.0,1.0,76,0.00,,,0.20,Wunderground v.1.15,2013-01-02 18:20:00,
2013-01-02 13:25:00,47.8,40.9,30.05,ESE,122,0.0,1.0,77,0.00,,,0.20,Wunderground v.1.15,2013-01-02 18:25:00,
2013-01-02 13:30:00,47.9,40.7,30.05,SE,131,0.0,0.0,76,0.00,,,0.20,Wunderground v.1.15,2013-01-02 18:30:00,
2013-01-02 13:40:00,48.1,40.5,30.04,East,98,0.0,0.0,75,0.00,,,0.20,Wunderground v.1.15,2013-01-02 18:40:00,
2013-01-02 13:50:00,47.7,40.8,30.04,East,92,0.0,0.0,77,0.00,,,0.20,Wunderground v.1.15,2013-01-02 18:50:00,
2013-01-02 14:00:00,48.2,41.0,30.03,East,97,0.0,0.0,76,0.00,,,0.20,Wunderground v.1.15,2013-01-02 19:00:00,
2013-01-02 14:05:00,48.3,40.4,30.04,ESE,117,0.0,0.0,74,0.00,,,0.20,Wunderground v.1.15,2013-01-02 19:05:00,
2013-01-02 14:15:00,48.3,40.0,30.04,ENE,77,0.0,0.0,73,0.00,,,0.20,Wunderground v.1.15,2013-01-02 19:15:00,
2013-01-02 14:20:00,48.5,39.9,30.04,East,87,0.0,1.0,72,0.00,,,0.20,Wunderground v.1.15,2013-01-02 19:20:00,
2013-01-02 14:25:00,48.4,39.8,30.03,SE,141,0.0,1.0,72,0.00,,,0.20,Wunderground v.1.15,2013-01-02 19:25:00,
2013-01-02 14:30:00,48.3,39.7,30.04,East,84,0.0,0.0,72,0.00,,,0.20,Wunderground v.1.15,2013-01-02 19:30:00,
2013-01-02 14:40:00,48.4,40.1,30.05,East,96,0.0,0.0,73,0.00,,,0.20,Wunderground v.1.15,2013-01-02 19:40:00,
2013-01-02 14:45:00,48.3,39.7,30.04,SSE,163,0.0,0.0,72,0.00,,,0.20,Wunderground v.1.15,2013-01-02 19:45:00,
2013-01-02 14:55:00,48.3,39.7,30.05,South,173,0.0,1.0,72,0.00,,,0.20,Wunderground v.1.15,2013-01-02 19:55:00,
2013-01-02 15:00:00,48.3,39.7,30.05,ESE,122,0.0,0.0,72,0.00,,,0.20,Wunderground v.1.15,2013-01-02 20:00:00,
2013-01-02 15:10:00,48.2,39.2,30.06,ESE,121,0.0,1.0,71,0.00,,,0.20,Wunderground v.1.15,2013-01-02 20:10:00,
2013-01-02 15:15:00,48.0,38.7,30.05,SE,135,0.0,1.0,70,0.00,,,0.20,Wunderground v.1.15,2013-01-02 20:15:00,
2013-01-02 15:20:00,47.9,39.3,30.05,NE,46,0.0,0.0,72,0.00,,,0.20,Wunderground v.1.15,2013-01-02 20:20:00,
2013-01-02 15:30:00,47.8,39.2,30.06,SSE,153,0.0,0.0,72,0.00,,,0.20,Wunderground v.1.15,2013-01-02 20:30:00,
2013-01-02 15:35:00,47.8,39.6,30.07,SSE,150,0.0,0.0,73,0.00,,,0.20,Wunderground v.1.15,2013-01-02 20:35:00,
2013-01-02 15:40:00,47.8,39.2,30.07,SSE,150,0.0,0.0,72,0.00,,,0.20,Wunderground v.1.15,2013-01-02 20:40:00,
2013-01-02 15:45:00,47.8,39.2,30.08,SSE,149,0.0,0.0,72,0.00,,,0.20,Wunderground v.1.15,2013-01-02 20:45:00,
2013-01-02 15:55:00,47.7,39.5,30.08,SSE,149,0.0,0.0,73,0.00,,,0.20,Wunderground v.1.15,2013-01-02 20:55:00,
2013-01-02 16:00:00,47.5,38.9,30.08,East,99,0.0,0.0,72,0.00,,,0.20,Wunderground v.1.15,2013-01-02 21:00:00,
2013-01-02 16:10:00,47.1,39.9,30.08,East,99,0.0,0.0,76,0.00,,,0.20,Wunderground v.1.15,2013-01-02 21:10:00,
2013-01-02 16:15:00,46.9,40.4,30.08,East,98,0.0,0.0,78,0.00,,,0.20,Wunderground v.1.15,2013-01-02 21:15:00,
2013-01-02 16:25:00,46.8,41.3,30.08,East,99,0.0,0.0,81,0.00,,,0.20,Wunderground v.1.15,2013-01-02 21:25:00,
2013-01-02 16:30:00,46.6,40.4,30.08,East,98,0.0,0.0,79,0.00,,,0.20,Wunderground v.1.15,2013-01-02 21:30:00,
2013-01-02 16:40:00,46.3,40.1,30.08,ENE,58,0.0,0.0,79,0.00,,,0.20,Wunderground v.1.15,2013-01-02 21:40:00,
2013-01-02 16:45:00,46.1,39.9,30.08,SE,131,0.0,0.0,79,0.00,,,0.20,Wunderground v.1.15,2013-01-02 21:45:00,
2013-01-02 16:50:00,45.8,39.3,30.09,SE,131,0.0,0.0,78,0.00,,,0.20,Wunderground v.1.15,2013-01-02 21:50:00,
2013-01-02 16:55:00,45.6,39.1,30.09,ESE,109,0.0,1.0,78,0.00,,,0.20,Wunderground v.1.15,2013-01-02 21:55:00,
2013-01-02 17:05:00,45.4,38.9,30.09,ESE,103,0.0,0.0,78,0.00,,,0.20,Wunderground v.1.15,2013-01-02 22:05:00,
2013-01-02 17:10:00,45.2,39.4,30.09,ESE,103,0.0,0.0,80,0.00,,,0.20,Wunderground v.1.15,2013-01-02 22:10:00,
2013-01-02 17:15:00,45.1,39.3,30.10,ESE,103,0.0,0.0,80,0.00,,,0.20,Wunderground v.1.15,2013-01-02 22:15:00,
2013-01-02 17:25:00,44.6,39.8,30.10,ESE,103,0.0,0.0,83,0.00,,,0.20,Wunderground v.1.15,2013-01-02 22:25:00,
2013-01-02 17:30:00,44.4,39.6,30.10,ESE,103,0.0,0.0,83,0.00,,,0.20,Wunderground v.1.15,2013-01-02 22:30:00,
2013-01-02 17:40:00,44.1,39.9,30.09,ESE,103,0.0,0.0,85,0.00,,,0.20,Wunderground v.1.15,2013-01-02 22:40:00,
2013-01-02 17:45:00,43.9,39.7,30.09,ESE,103,0.0,0.0,85,0.00,,,0.20,Wunderground v.1.15,2013-01-02 22:45:00,
2013-01-02 17:50:00,43.8,39.9,30.10,ESE,103,0.0,0.0,86,0.00,,,0.20,Wunderground v.1.15,2013-01-02 22:50:00,
2013-01-02 18:00:00,43.6,39.7,30.10,ESE,103,0.0,0.0,86,0.00,,,0.20,Wunderground v.1.15,2013-01-02 23:00:00,
2013-01-02 18:05:00,43.5,39.9,30.11,ESE,103,0.0,0.0,87,0.00,,,0.20,Wunderground v.1.15,2013-01-02 23:05:00,
2013-01-02 18:10:00,43.3,39.7,30.12,ESE,103,0.0,0.0,87,0.00,,,0.20,Wunderground v.1.15,2013-01-02 23:10:00,
2013-01-02 18:15:00,43.2,39.6,30.12,ESE,103,0.0,0.0,87,0.00,,,0.20,Wunderground v.1.15,2013-01-02 23:15:00,
2013-01-02 18:25:00,43.0,39.7,30.11,ESE,103,0.0,0.0,88,0.00,,,0.20,Wunderground v.1.15,2013-01-02 23:25:00,
2013-01-02 18:30:00,42.9,39.6,30.12,ESE,103,0.0,0.0,88,0.00,,,0.20,Wunderground v.1.15,2013-01-02 23:30:00,
2013-01-02 18:40:00,42.8,39.8,30.12,ESE,103,0.0,0.0,89,0.00,,,0.20,Wunderground v.1.15,2013-01-02 23:40:00,
2013-01-02 18:45:00,42.7,39.4,30.13,ESE,103,0.0,0.0,88,0.00,,,0.20,Wunderground v.1.15,2013-01-02 23:45:00,
2013-01-02 18:55:00,42.5,39.2,30.13,ESE,105,0.0,0.0,88,0.00,,,0.20,Wunderground v.1.15,2013-01-02 23:55:00,
2013-01-02 19:00:00,42.5,39.5,30.12,ESE,105,0.0,0.0,89,0.00,,,0.20,Wunderground v.1.15,2013-01-03 00:00:00,
2013-01-02 19:05:00,42.3,39.3,30.11,ESE,105,0.0,0.0,89,0.00,,,0.20,Wunderground v.1.15,2013-01-03 00:05:00,
2013-01-02 19:15:00,42.1,39.1,30.13,ESE,105,0.0,0.0,89,0.00,,,0.20,Wunderground v.1.15,2013-01-03 00:15:00,
2013-01-02 19:20:00,41.9,38.9,30.14,ESE,105,0.0,0.0,89,0.00,,,0.20,Wunderground v.1.15,2013-01-03 00:20:00,
2013-01-02 19:30:00,41.7,39.3,30.14,ESE,104,0.0,0.0,91,0.00,,,0.20,Wunderground v.1.15,2013-01-03 00:30:00,
2013-01-02 19:40:00,41.4,39.0,30.15,ESE,104,0.0,0.0,91,0.00,,,0.20,Wunderground v.1.15,2013-01-03 00:40:00,
2013-01-02 19:45:00,41.3,38.9,30.15,ESE,105,0.0,0.0,91,0.00,,,0.20,Wunderground v.1.15,2013-01-03 00:45:00,
2013-01-02 19:55:00,41.0,38.6,30.14,ESE,105,0.0,0.0,91,0.00,,,0.20,Wunderground v.1.15,2013-01-03 00:55:00,
2013-01-02 20:00:00,40.9,38.8,30.13,ESE,104,0.0,0.0,92,0.00,,,0.20,Wunderground v.1.15,2013-01-03 01:00:00,
2013-01-02 20:10:00,40.8,38.7,30.14,ESE,104,0.0,0.0,92,0.00,,,0.20,Wunderground v.1.15,2013-01-03 01:10:00,
2013-01-02 20:15:00,40.7,38.8,30.13,ESE,105,0.0,0.0,93,0.00,,,0.20,Wunderground v.1.15,2013-01-03 01:15:00,
2013-01-02 20:25:00,40.7,38.8,30.13,ESE,104,0.0,0.0,93,0.00,,,0.20,Wunderground v.1.15,2013-01-03 01:25:00,
2013-01-02 20:30:00,40.6,38.7,30.14,ESE,105,0.0,0.0,93,0.00,,,0.20,Wunderground v.1.15,2013-01-03 01:30:00,
2013-01-02 20:40:00,40.5,38.6,30.14,ESE,105,0.0,0.0,93,0.00,,,0.20,Wunderground v.1.15,2013-01-03 01:40:00,
2013-01-02 20:50:00,40.5,38.9,30.14,SE,143,0.0,0.0,94,0.00,,,0.20,Wunderground v.1.15,2013-01-03 01:50:00,
2013-01-02 20:55:00,40.4,38.8,30.14,SE,143,0.0,0.0,94,0.00,,,0.20,Wunderground v.1.15,2013-01-03 01:55:00,
2013-01-02 21:05:00,40.4,38.8,30.15,SE,143,0.0,0.0,94,0.00,,,0.20,Wunderground v.1.15,2013-01-03 02:05:00,
2013-01-02 21:10:00,40.4,38.8,30.15,SE,143,0.0,0.0,94,0.00,,,0.20,Wunderground v.1.15,2013-01-03 02:10:00,
2013-01-02 21:15:00,40.4,38.8,30.14,SE,142,0.0,0.0,94,0.00,,,0.20,Wunderground v.1.15,2013-01-03 02:15:00,
2013-01-02 21:25:00,40.3,38.7,30.14,SE,143,0.0,0.0,94,0.00,,,0.20,Wunderground v.1.15,2013-01-03 02:25:00,
2013-01-02 21:30:00,40.3,38.7,30.14,SE,143,0.0,0.0,94,0.00,,,0.20,Wunderground v.1.15,2013-01-03 02:30:00,
2013-01-02 21:40:00,40.3,39.0,30.15,SE,143,0.0,0.0,95,0.00,,,0.20,Wunderground v.1.15,2013-01-03 02:40:00,
2013-01-02 21:45:00,40.3,39.0,30.14,SE,142,0.0,0.0,95,0.00,,,0.20,Wunderground v.1.15,2013-01-03 02:45:00,
2013-01-02 21:55:00,40.2,38.9,30.15,SE,142,0.0,0.0,95,0.00,,,0.20,Wunderground v.1.15,2013-01-03 02:55:00,
2013-01-02 22:00:00,40.3,39.0,30.15,SE,143,0.0,0.0,95,0.00,,,0.20,Wunderground v.1.15,2013-01-03 03:00:00,
2013-01-02 22:05:00,40.2,38.9,30.16,SE,142,0.0,0.0,95,0.00,,,0.20,Wunderground v.1.15,2013-01-03 03:05:00,
2013-01-02 22:15:00,40.2,38.9,30.16,SE,142,0.0,0.0,95,0.00,,,0.20,Wunderground v.1.15,2013-01-03 03:15:00,
2013-01-02 22:20:00,40.2,38.9,30.16,SE,143,0.0,0.0,95,0.00,,,0.20,Wunderground v.1.15,2013-01-03 03:20:00,
2013-01-02 22:25:00,40.2,38.9,30.16,SE,143,0.0,0.0,95,0.00,,,0.20,Wunderground v.1.15,2013-01-03 03:25:00,
2013-01-02 22:40:00,40.4,39.1,30.16,SE,143,0.0,0.0,95,0.00,,,0.20,Wunderground v.1.15,2013-01-03 03:40:00,
2013-01-02 22:45:00,40.4,39.1,30.17,SE,143,0.0,0.0,95,0.00,,,0.20,Wunderground v.1.15,2013-01-03 03:45:00,
2013-01-02 22:55:00,40.3,39.0,30.17,SE,142,0.0,0.0,95,0.00,,,0.20,Wunderground v.1.15,2013-01-03 03:55:00,
2013-01-02 23:00:00,40.4,39.1,30.17,SE,142,0.0,0.0,95,0.00,,,0.20,Wunderground v.1.15,2013-01-03 04:00:00,
2013-01-02 23:10:00,40.4,39.1,30.17,SE,143,0.0,0.0,95,0.00,,,0.20,Wunderground v.1.15,2013-01-03 04:10:00,
2013-01-02 23:15:00,40.4,39.4,30.16,SE,143,0.0,0.0,96,0.00,,,0.20,Wunderground v.1.15,2013-01-03 04:15:00,
2013-01-02 23:25:00,40.4,39.4,30.17,SE,142,0.0,0.0,96,0.00,,,0.20,Wunderground v.1.15,2013-01-03 04:25:00,
2013-01-02 23:30:00,40.4,39.4,30.17,SE,142,0.0,0.0,96,0.00,,,0.20,Wunderground v.1.15,2013-01-03 04:30:00,
2013-01-02 23:35:00,40.4,39.4,30.17,SE,143,0.0,0.0,96,0.00,,,0.20,Wunderground v.1.15,2013-01-03 04:35:00,
2013-01-02 23:40:00,40.4,39.4,30.16,SE,143,0.0,0.0,96,0.00,,,0.20,Wunderground v.1.15,2013-01-03 04:40:00,
2013-01-02 23:50:00,40.3,39.3,30.17,SE,142,0.0,0.0,96,0.00,,,0.20,Wunderground v.1.15,2013-01-03 04:50:00,
2013-01-02 23:55:00,40.4,39.4,30.16,SE,142,0.0,0.0,96,0.00,,,0.20,Wunderground v.1.15,2013-01-03 04:55:00,